This is the latest recevied weather packets stored in our database for station/object AB4KN. If no packets are shown the sender has not sent any weather packets the latest 1 day(s).
| Time | Temp. | Humidity | Pressure | Rain* | Wind** | Luminosity | Snow |
|---|---|---|---|---|---|---|---|
| 1778026058 | 23.89° C | 41% | 1018.9 hPa | 0 mm | 0 m/s | 0 W/m² | - |
| 1778025755 | 23.89° C | 41% | 1018.9 hPa | 0 mm | 0.89 m/s, 253° | 1 W/m² | - |
| 1778025452 | 23.89° C | 40% | 1018.8 hPa | 0 mm | 0 m/s | 3 W/m² | - |
| 1778025150 | 23.89° C | 39% | 1018.8 hPa | 0 mm | 0.45 m/s, 240° | 3 W/m² | - |
| 1778024846 | 24.44° C | 39% | 1018.7 hPa | 0 mm | 0 m/s | 6 W/m² | - |
| 1778024544 | 24.44° C | 38% | 1018.5 hPa | 0 mm | 1.34 m/s, 252° | 6 W/m² | - |
| 1778024240 | 24.44° C | 39% | 1018.7 hPa | 0 mm | 0.89 m/s, 272° | 6 W/m² | - |
| 1778023938 | 25° C | 39% | 1018.6 hPa | 0 mm | 0.89 m/s, 200° | 6 W/m² | - |
| 1778023635 | 25° C | 38% | 1018.6 hPa | 0 mm | 1.34 m/s, 222° | 12 W/m² | - |
| 1778023333 | 25° C | 38% | 1018.7 hPa | 0 mm | 0.89 m/s, 274° | 15 W/m² | - |
| 1778023029 | 25° C | 38% | 1018.6 hPa | 0 mm | 0.89 m/s, 270° | 12 W/m² | - |
| 1778022728 | 25° C | 37% | 1018.8 hPa | 0 mm | 1.34 m/s, 246° | 9 W/m² | - |
| 1778022426 | 25° C | 37% | 1018.5 hPa | 0 mm | 1.34 m/s, 247° | 10 W/m² | - |
| 1778022122 | 25° C | 37% | 1018.5 hPa | 0 mm | 1.79 m/s, 243° | 11 W/m² | - |
| 1778021819 | 25° C | 36% | 1018.5 hPa | 0 mm | 1.34 m/s, 247° | 11 W/m² | - |
| 1778021515 | 25.56° C | 37% | 1018.5 hPa | 0 mm | 0.89 m/s, 246° | 12 W/m² | - |
| 1778021211 | 25.56° C | 36% | 1018.5 hPa | 0 mm | 0.89 m/s, 248° | 12 W/m² | - |
| 1778020909 | 25.56° C | 35% | 1018.4 hPa | 0 mm | 1.79 m/s, 245° | 13 W/m² | - |
| 1778020606 | 25.56° C | 34% | 1018.6 hPa | 0 mm | 1.34 m/s, 204° | 13 W/m² | - |
| 1778020302 | 25.56° C | 33% | 1018.6 hPa | 0 mm | 0 m/s | 13 W/m² | - |
| 1778019992 | 25.56° C | 33% | 1018.3 hPa | 0 mm | 0.89 m/s, 172° | 14 W/m² | - |
| 1778019689 | 25.56° C | 33% | 1018.2 hPa | 0 mm | 2.24 m/s, 233° | 15 W/m² | - |
| 1778019386 | 26.11° C | 32% | 1018.2 hPa | 0 mm | 1.79 m/s, 248° | 15 W/m² | - |
| 1778019083 | 26.11° C | 33% | 1018.4 hPa | 0 mm | 1.34 m/s, 226° | 16 W/m² | - |
| 1778018780 | 26.11° C | 32% | 1018.1 hPa | 0 mm | 0.45 m/s, 266° | 15 W/m² | - |
* Rain latest hour (hover to see other rain measurements)
** Current wind speed in m/s (hover to see current wind gust speed)